Location: Davidson Heights
(40.5834°N, 80.2598°W)
Time: 17:33:09
(UTC+00:00)

Hubble Space Telescope - Visible Passes

Search period start: 25 November 2020 00:00
Search period end: 05 December 2020 00:00
Orbit: 536 x 539 km, 28.5° (Epoch: 25 November)

Date Brightness Start Highest point End Pass type
(mag) Time Alt. Az. Time Alt. Az. Time Alt. Az.
03 Dec 3.7 00:38:11 10° SSW 00:38:14 10° SSW 00:38:14 10° SSW visible
04 Dec 3.4 00:27:07 10° SSW 00:28:05 13° SSW 00:28:05 13° SSW visible
04 Dec 3.4 22:37:33 10° S 22:38:09 10° SSE 22:38:45 10° SSE visible
